• In Belarus
  • List of Countries
  • For 7 days
  • Water Temperature
  • Satellite Maps
  • Weather Map
  • Weather Widgets
  • user-avatar
    Login

    Hourly Weather Diapaga

    Today, 20 February, Tuesday

    Time Temperature Precipitation Wind Pressure Humidity
    00:00 +31°C° 0 mm 2 mps 732 mmHg 12%
    01:00 +30°C° 0 mm 2 mps 732 mmHg 12%
    02:00 +30°C° 0 mm 2 mps 732 mmHg 12%
    03:00 +30°C° 0 mm 2 mps 732 mmHg 12%
    04:00 +29°C° 0 mm 1 mps 732 mmHg 12%
    05:00 +29°C° 0 mm 1 mps 732 mmHg 13%
    06:00 +28°C° 0 mm 1 mps 732 mmHg 13%
    07:00 +30°C° 0 mm 2 mps 733 mmHg 11%
    08:00 +34°C° 0 mm 2 mps 733 mmHg 10%
    09:00 +36°C° 0 mm 2 mps 733 mmHg 8%
    10:00 +38°C° 0 mm 2 mps 733 mmHg 8%
    11:00 +40°C° 0 mm 2 mps 733 mmHg 7%
    12:00 +42°C° 0 mm 2 mps 733 mmHg 7%
    13:00 +43°C° 0 mm 2 mps 732 mmHg 7%
    14:00 +43°C° 0 mm 1 mps 731 mmHg 7%
    15:00 +44°C° 0 mm 1 mps 731 mmHg 7%
    16:00 +42°C° 0 mm 1 mps 731 mmHg 8%
    17:00 +40°C° 0 mm 1 mps 731 mmHg 8%
    18:00 +39°C° 0 mm 1 mps 731 mmHg 9%
    19:00 +37°C° 0 mm 1 mps 731 mmHg 10%
    20:00 +36°C° 0 mm 1 mps 731 mmHg 10%
    21:00 +35°C° 0 mm 1 mps 732 mmHg 11%
    22:00 +34°C° 0 mm 1 mps 732 mmHg 12%
    23:00 +34°C° 0 mm 1 mps 732 mmHg 13%

    Tomorrow, 21 February, Wednesday

    Time Temperature Precipitation Wind Pressure Humidity
    00:00 +33°C° 0 mm 1 mps 732 mmHg 15%
    01:00 +32°C° 0 mm 1 mps 731 mmHg 18%
    02:00 +32°C° 0 mm 1 mps 731 mmHg 21%
    03:00 +31°C° 0 mm 1 mps 731 mmHg 24%
    04:00 +31°C° 0 mm 2 mps 731 mmHg 28%
    05:00 +31°C° 0 mm 2 mps 731 mmHg 32%
    06:00 +31°C° 0 mm 2 mps 731 mmHg 36%
    07:00 +33°C° 0 mm 3 mps 732 mmHg 36%
    08:00 +35°C° 0 mm 4 mps 732 mmHg 37%
    09:00 +36°C° 0 mm 5 mps 733 mmHg 37%
    10:00 +38°C° 0 mm 4 mps 732 mmHg 33%
    11:00 +41°C° 0 mm 4 mps 732 mmHg 29%
    12:00 +42°C° 0 mm 4 mps 731 mmHg 25%
    13:00 +42°C° 0 mm 4 mps 731 mmHg 25%
    14:00 +42°C° 0 mm 3 mps 730 mmHg 24%
    15:00 +42°C° 0 mm 3 mps 729 mmHg 23%
    16:00 +40°C° 0 mm 3 mps 729 mmHg 24%
    17:00 +39°C° 0 mm 2 mps 729 mmHg 26%
    18:00 +39°C° 0 mm 2 mps 729 mmHg 27%
    19:00 +38°C° 0.1 mm 2 mps 730 mmHg 29%
    20:00 +37°C° 0.1 mm 2 mps 730 mmHg 31%
    21:00 +36°C° 0.1 mm 2 mps 731 mmHg 33%
    22:00 +36°C° 0.3 mm 2 mps 731 mmHg 35%
    23:00 +35°C° 0.3 mm 2 mps 731 mmHg 37%

    Day after tomorrow, 22 February, Thursday

    Time Temperature Precipitation Wind Pressure Humidity
    00:00 +35°C° 0.3 mm 2 mps 731 mmHg 39%
    01:00 +34°C° 0.1 mm 2 mps 730 mmHg 41%
    02:00 +34°C° 0.1 mm 3 mps 730 mmHg 42%
    03:00 +34°C° 0.1 mm 3 mps 729 mmHg 44%
    04:00 +34°C° 0 mm 3 mps 729 mmHg 44%
    05:00 +34°C° 0 mm 3 mps 730 mmHg 44%
    06:00 +34°C° 0 mm 4 mps 730 mmHg 44%
    07:00 +34°C° 0.1 mm 4 mps 731 mmHg 44%
    08:00 +35°C° 0.1 mm 5 mps 732 mmHg 43%
    09:00 +35°C° 0.1 mm 5 mps 732 mmHg 43%
    10:00 +37°C° 0 mm 5 mps 732 mmHg 39%
    11:00 +39°C° 0 mm 5 mps 732 mmHg 35%
    12:00 +41°C° 0 mm 4 mps 731 mmHg 31%
    13:00 +40°C° 0 mm 4 mps 730 mmHg 32%
    14:00 +40°C° 0 mm 4 mps 730 mmHg 33%
    15:00 +39°C° 0 mm 5 mps 729 mmHg 34%
    16:00 +38°C° 0 mm 4 mps 729 mmHg 34%
    17:00 +38°C° 0 mm 4 mps 729 mmHg 35%
    18:00 +37°C° 0 mm 3 mps 730 mmHg 35%
    19:00 +37°C° 0.1 mm 3 mps 730 mmHg 38%
    20:00 +36°C° 0.1 mm 4 mps 731 mmHg 41%
    21:00 +35°C° 0.1 mm 4 mps 732 mmHg 44%
    22:00 +34°C° 0.1 mm 3 mps 731 mmHg 48%
    23:00 +33°C° 0.1 mm 3 mps 731 mmHg 52%

    23 February, Friday

    Time Temperature Precipitation Wind Pressure Humidity
    00:00 +33°C° 0.1 mm 3 mps 731 mmHg 56%
    01:00 +31°C° 0 mm 3 mps 731 mmHg 57%
    02:00 +31°C° 0 mm 2 mps 731 mmHg 59%
    03:00 +30°C° 0 mm 2 mps 731 mmHg 61%
    04:00 +30°C° 0 mm 2 mps 731 mmHg 62%
    05:00 +30°C° 0 mm 2 mps 731 mmHg 62%
    06:00 +29°C° 0 mm 2 mps 731 mmHg 63%
    07:00 +30°C° 0 mm 2 mps 732 mmHg 56%
    08:00 +32°C° 0 mm 2 mps 732 mmHg 50%
    09:00 +34°C° 0 mm 2 mps 733 mmHg 44%
    10:00 +36°C° 0 mm 2 mps 733 mmHg 40%
    11:00 +37°C° 0 mm 2 mps 732 mmHg 35%
    12:00 +39°C° 0 mm 2 mps 732 mmHg 31%
    13:00 +39°C° 0 mm 2 mps 731 mmHg 29%
    14:00 +40°C° 0 mm 2 mps 731 mmHg 26%
    15:00 +40°C° 0 mm 1 mps 730 mmHg 24%
    16:00 +39°C° 0 mm 1 mps 730 mmHg 25%
    17:00 +39°C° 0 mm 1 mps 730 mmHg 26%
    18:00 +37°C° 0 mm 1 mps 731 mmHg 28%
    19:00 +36°C° 0 mm 1 mps 731 mmHg 29%
    20:00 +36°C° 0 mm 1 mps 732 mmHg 31%
    21:00 +37°C° 0 mm 2 mps 732 mmHg 32%
    22:00 +36°C° 0 mm 2 mps 732 mmHg 34%
    23:00 +35°C° 0 mm 2 mps 732 mmHg 36%

    24 February, Saturday

    Time Temperature Precipitation Wind Pressure Humidity
    00:00 +35°C° 0 mm 2 mps 732 mmHg 39%
    01:00 +33°C° 0 mm 1 mps 732 mmHg 41%
    02:00 +32°C° 0 mm 1 mps 731 mmHg 43%
    03:00 +32°C° 0 mm 1 mps 731 mmHg 45%
    04:00 +32°C° 0 mm 1 mps 731 mmHg 46%
    05:00 +31°C° 0 mm 1 mps 732 mmHg 48%
    06:00 +31°C° 0 mm 1 mps 732 mmHg 49%
    07:00 +32°C° 0.1 mm 2 mps 733 mmHg 48%
    08:00 +32°C° 0.1 mm 2 mps 734 mmHg 48%
    09:00 +34°C° 0.1 mm 2 mps 734 mmHg 47%
    10:00 +34°C° 0 mm 2 mps 734 mmHg 47%
    11:00 +34°C° 0 mm 2 mps 733 mmHg 48%
    12:00 +35°C° 0 mm 2 mps 733 mmHg 48%
    13:00 +35°C° 0 mm 2 mps 733 mmHg 47%
    14:00 +35°C° 0 mm 2 mps 732 mmHg 46%
    15:00 +35°C° 0 mm 2 mps 731 mmHg 44%
    16:00 +35°C° 0 mm 2 mps 732 mmHg 45%
    17:00 +35°C° 0 mm 2 mps 732 mmHg 45%
    18:00 +34°C° 0 mm 1 mps 732 mmHg 45%
    19:00 +34°C° 0.1 mm 2 mps 733 mmHg 48%
    20:00 +32°C° 0.1 mm 2 mps 733 mmHg 51%
    21:00 +31°C° 0.1 mm 3 mps 734 mmHg 55%
    22:00 +31°C° 0 mm 2 mps 733 mmHg 56%
    23:00 +31°C° 0 mm 2 mps 733 mmHg 57%

    25 February, Sunday

    Time Temperature Precipitation Wind Pressure Humidity
    00:00 +30°C° 0 mm 2 mps 733 mmHg 59%
    01:00 +30°C° 0 mm 1 mps 733 mmHg 58%
    02:00 +30°C° 0 mm 1 mps 732 mmHg 58%
    03:00 +30°C° 0 mm 1 mps 732 mmHg 57%
    04:00 +30°C° 0 mm 1 mps 733 mmHg 56%
    05:00 +30°C° 0 mm 2 mps 733 mmHg 56%
    06:00 +30°C° 0 mm 2 mps 734 mmHg 55%
    07:00 +31°C° 0 mm 2 mps 734 mmHg 54%
    08:00 +31°C° 0 mm 2 mps 735 mmHg 52%
    09:00 +33°C° 0 mm 3 mps 735 mmHg 51%
    10:00 +34°C° 0 mm 3 mps 735 mmHg 46%
    11:00 +36°C° 0 mm 3 mps 734 mmHg 42%
    12:00 +37°C° 0 mm 3 mps 734 mmHg 37%
    13:00 +38°C° 0 mm 2 mps 733 mmHg 35%
    14:00 +38°C° 0 mm 2 mps 733 mmHg 32%
    15:00 +39°C° 0 mm 2 mps 732 mmHg 29%
    16:00 +37°C° 0 mm 1 mps 732 mmHg 30%
    17:00 +37°C° 0 mm 1 mps 732 mmHg 30%
    18:00 +36°C° 0 mm 1 mps 733 mmHg 31%
    19:00 +36°C° 0 mm 1 mps 733 mmHg 32%
    20:00 +35°C° 0 mm 1 mps 733 mmHg 33%
    21:00 +34°C° 0 mm 1 mps 734 mmHg 35%
    22:00 +34°C° 0 mm 1 mps 734 mmHg 35%
    23:00 +34°C° 0 mm 1 mps 734 mmHg 36%
    Show more